Total_Precipitation_Accumulation
3.05 3.15 3.51 2.86 2.39 2.23 2.18 2.31 2.53 2.30 2.25 2.28 2.41 2.43 2.40 2.49 2.56 2.70 2.77 2.74 2.83 3.12 3.46 3.78 3.94 4.12 4.46 4.53 4.15 3.81 3.78 3.99 4.06 3.91 3.73 3.47 3.26 3.32 3.42 3.53 3.37 2.43 2.45
2.47 2.71 3.05 2.54 2.11 1.97 2.02 2.26 2.34 2.26 2.23 2.27 2.36 2.43 2.44 2.59 2.58 2.68 2.70 2.82 3.06 3.31 3.43 3.62 3.71 3.76 3.92 3.93 3.69 3.38 3.40 3.84 4.28 4.18 3.90 3.47 3.43 3.47 3.55 3.51 3.41 2.60 2.52
1.81 2.15 2.32 2.25 1.97 1.87 1.90 2.07 2.05 2.04 2.12 2.26 2.34 2.42 2.49 2.61 2.62 2.65 2.80 2.96 3.22 3.42 3.48 3.46 3.47 3.50 3.49 3.45 3.38 3.19 3.45 3.91 4.28 4.45 4.46 3.26 3.06 3.59 3.71 3.52 3.06 2.62 2.50
1.33 1.61 1.74 1.92 1.85 1.77 1.67 1.81 1.93 1.90 1.92 2.08 2.38 2.57 2.61 2.76 2.76 2.80 3.01 3.19 3.38 3.35 3.36 3.35 3.30 3.19 3.22 3.19 3.10 3.20 3.39 3.86 4.36 4.82 4.27 3.03 2.56 3.20 3.63 3.34 2.96 2.81 2.66
1.24 1.35 1.62 1.62 1.56 1.63 1.62 1.75 1.92 1.96 1.96 1.97 2.25 2.54 2.74 2.95 3.01 3.10 3.24 3.39 3.41 3.27 3.14 3.14 3.12 2.88 2.94 3.01 3.07 3.30 3.48 4.11 4.80 4.64 3.59 3.25 3.04 3.22 3.31 3.34 3.26 3.18 2.93
1.07 1.14 1.33 1.54 1.53 1.59 1.64 1.71 1.73 1.87 2.05 2.12 2.31 2.62 2.80 3.02 3.22 3.40 3.39 3.50 3.42 3.16 3.08 3.05 2.99 2.84 2.89 3.01 3.22 3.30 3.47 4.19 4.45 3.52 3.14 3.09 2.96 3.16 3.14 3.39 3.42 3.33 3.19
0.91 1.06 1.22 1.44 1.52 1.58 1.56 1.64 1.72 1.85 2.12 2.28 2.29 2.42 2.55 2.76 3.13 3.29 3.25 3.28 3.14 2.97 2.90 2.91 2.96 2.84 2.80 2.93 3.25 3.26 3.51 3.93 3.45 2.94 3.04 3.11 2.78 2.73 2.99 3.43 3.55 3.43 3.10
0.93 0.92 1.13 1.38 1.50 1.54 1.53 1.67 1.82 2.07 2.31 2.42 2.29 2.28 2.38 2.62 2.91 2.95 2.91 2.87 2.82 2.87 2.84 2.89 2.89 2.76 2.68 2.95 3.11 3.15 3.41 3.35 2.65 2.47 2.54 2.58 2.49 2.57 2.99 3.35 3.48 3.45 3.14
1.15 1.08 1.15 1.23 1.29 1.42 1.57 1.74 2.04 2.33 2.49 2.43 2.23 2.22 2.42 2.57 2.63 2.59 2.64 2.67 2.74 2.78 2.80 2.80 2.70 2.61 2.60 2.83 2.89 2.92 3.23 3.37 2.71 2.49 2.20 2.42 2.69 2.85 3.26 3.43 3.40 3.45 3.35
1.47 1.41 1.32 1.35 1.38 1.34 1.56 1.93 2.19 2.43 2.55 2.50 2.38 2.44 2.62 2.73 2.63 2.69 2.65 2.74 2.81 2.94 3.01 3.07 3.00 2.85 2.81 2.82 2.67 2.85 3.27 3.09 2.57 2.35 2.35 2.28 2.71 3.01 3.32 3.46 3.47 3.39 3.32
2.03 1.77 1.62 1.47 1.52 1.63 1.71 1.91 2.38 2.66 2.66 2.65 2.84 3.01 3.12 3.07 2.85 3.03 2.81 3.14 3.20 3.28 3.39 3.55 3.47 3.20 3.11 2.99 3.03 3.35 3.18 2.74 2.69 2.61 2.50 2.43 2.68 3.03 3.49 3.58 3.53 3.45 3.28
2.32 1.90 1.76 1.59 1.57 1.66 1.84 2.39 2.79 2.60 2.70 2.95 3.25 3.39 3.61 3.54 3.44 3.00 3.28 3.64 3.92 4.21 4.26 4.33 4.27 3.88 3.36 3.09 3.66 4.08 2.97 2.59 2.64 2.60 2.54 2.58 2.88 3.24 3.51 3.43 3.38 3.37 3.25
2.14 1.95 1.90 1.94 2.03 1.95 2.11 2.56 2.91 2.86 3.02 3.15 3.20 3.39 3.59 3.30 3.20 3.35 3.72 4.05 4.32 4.54 4.54 4.77 4.87 4.25 3.83 3.71 3.92 3.85 3.06 2.84 2.71 2.58 2.79 2.90 3.00 3.27 3.68 3.54 3.43 3.47 3.44
2.64 2.39 2.25 2.31 2.37 2.40 2.37 2.64 2.87 2.78 2.92 3.08 3.18 3.18 3.32 3.49 3.56 3.71 4.12 4.14 4.31 4.47 4.88 4.69 5.08 4.83 4.41 4.11 4.02 3.77 3.21 3.00 2.94 3.03 3.39 3.16 2.98 3.37 3.84 3.83 3.71 3.52 3.39
3.26 3.25 3.01 2.71 2.57 2.68 2.90 2.95 2.85 2.96 3.07 3.12 3.32 3.33 3.30 3.60 3.81 3.92 4.05 4.26 3.97 4.05 4.54 4.73 4.62 4.92 4.97 4.65 4.36 3.98 3.70 3.38 3.20 3.25 3.41 3.41 3.31 3.44 3.82 4.04 3.92 3.81 3.58
3.40 3.55 3.34 3.20 3.04 3.11 3.38 3.54 3.48 3.37 3.65 3.58 3.50 3.40 3.53 3.75 4.12 4.32 4.27 4.37 4.09 3.87 4.12 4.40 4.49 5.25 5.16 5.03 4.53 4.14 4.01 3.88 3.56 3.47 3.49 3.72 3.58 3.37 3.54 3.99 4.15 4.11 3.96
3.69 3.60 3.53 3.51 3.49 3.69 3.80 3.79 3.61 3.55 3.45 3.52 3.61 3.62 3.64 3.61 4.05 4.32 4.53 4.50 4.20 3.95 4.21 4.42 4.67 4.98 4.75 4.65 4.46 4.25 4.12 3.98 3.67 3.57 3.79 4.00 3.74 3.55 3.48 3.70 4.10 4.31 4.41
4.01 4.00 3.99 3.76 3.94 4.17 4.26 4.15 4.00 3.85 3.68 3.50 3.42 3.61 3.67 3.78 4.06 4.33 4.26 4.15 4.24 4.21 4.49 4.73 4.83 4.89 4.81 4.63 4.40 4.03 3.87 3.96 3.55 3.42 3.46 3.57 3.66 3.35 3.57 3.91 4.19 4.28 4.53
4.49 4.69 4.72 4.63 4.53 4.54 4.57 4.48 4.53 4.53 4.31 3.94 3.80 3.84 3.92 3.82 3.84 4.11 4.11 4.23 4.29 4.31 4.43 4.05 4.65 4.70 4.79 4.62 4.00 3.84 3.55 3.56 3.47 3.14 3.13 3.00 3.18 3.31 3.34 3.46 3.81 3.93 4.53
4.64 5.22 5.26 5.14 5.17 5.26 5.26 4.98 4.99 4.79 4.53 4.37 4.36 4.50 4.21 3.99 3.79 4.05 4.06 4.21 4.23 4.35 4.44 4.43 4.71 4.64 4.51 4.45 3.60 3.47 3.37 3.10 3.04 3.06 2.90 2.86 2.99 2.86 3.04 3.34 3.65 3.38 3.90
4.90 5.43 5.73 5.83 5.80 5.60 5.32 4.99 4.81 4.82 4.77 4.48 4.27 4.13 4.00 3.87 3.90 4.29 4.15 4.55 4.41 4.20 4.20 4.31 4.56 4.48 4.24 4.30 4.25 3.71 3.12 2.79 2.83 2.75 2.85 2.95 2.79 2.85 3.20 3.62 3.76 3.56 3.27
4.53 5.00 5.20 5.04 5.07 4.95 4.77 4.73 4.72 5.00 4.67 4.37 4.22 4.09 3.76 3.74 3.83 3.84 4.25 4.21 4.23 4.35 4.28 4.25 4.44 4.29 3.92 4.13 4.41 4.36 3.62 3.41 2.90 2.35 2.67 2.84 2.91 3.17 3.30 3.36 3.75 3.91 3.55
3.50 3.78 3.98 4.21 4.25 4.21 4.26 4.23 4.33 4.56 4.39 4.28 4.17 4.07 3.64 3.45 3.44 3.64 3.81 3.97 4.31 4.15 4.20 4.32 4.22 4.16 3.92 3.90 4.12 4.51 4.06 3.57 3.03 2.48 2.34 2.61 3.00 3.34 3.32 3.37 3.48 3.68 3.76
3.12 3.35 3.45 3.54 3.74 3.86 3.99 3.90 3.77 3.66 3.67 3.69 3.77 3.71 3.67 3.50 3.39 3.44 3.56 3.74 3.93 3.72 3.79 3.50 3.60 3.92 4.11 3.84 3.95 3.90 3.83 3.75 3.65 3.06 2.62 2.58 2.87 3.05 3.24 3.23 3.37 3.57 3.78
2.58 2.87 3.05 3.11 3.29 3.61 3.76 3.72 3.70 3.46 3.41 3.45 3.52 3.56 3.56 3.48 3.37 3.31 3.33 3.39 3.44 3.32 3.40 3.34 3.57 3.57 3.60 3.61 3.70 3.79 3.92 3.93 3.72 3.51 3.12 3.03 2.92 2.64 2.70 2.93 3.16 3.35 3.56
2.31 2.51 2.64 2.77 2.88 3.13 3.35 3.48 3.58 3.49 3.36 3.32 3.32 3.32 3.30 3.32 3.20 3.11 3.05 3.11 3.12 3.12 3.18 3.24 3.39 3.30 3.36 3.50 3.57 3.62 3.82 3.85 3.91 3.89 3.34 3.13 2.89 2.38 2.34 2.35 2.59 2.90 3.34